Location: Unspecified
(50.7693°N, 0.0000°E)
Time: 12:28:43
(UTC+00:00)

Transit 4A - Pass Details

Date: 25 June 2019
Orbit: 862 x 982 km, 66.8° (Epoch: 19 July)

Event Time Altitude Azimuth Distance (km) Brightness Sun altitude
Rises 09:29:09 0° 251° (WSW) 3,649 10.7 49.7°
Reaches altitude 10° 09:31:56 10° 260° (W) 2,717 10.1 50.1°
Maximum altitude 09:37:44 35° 326° (NW) 1,524 9.1 50.9°
Drops below altitude 10° 09:43:36 10° 31° (NNE) 2,746 10.5 51.7°
Sets 09:46:26 0° 40° (NE) 3,693 11.1 52.0°
